Urban Revolution OCR Series - Bury
Skip Navigation Links
Results
Details
12 May 2018
HyperLink
Page 1 of 3 (128 items)
[1]23
Pos
Race No
Fav
Name
Time
Category
Cat Pos
Gender
Gen Pos
Team
1264David Smith00:19:0325-391Male1Elmer Fudds Offspring
2265Grant Chadwick00:19:0525-392Male2Elmer Fudds Offspring
344Harvey Roberts00:23:0116-181Male3 
411Harry Colson00:29:0640-491Male4 
569Ricardo Francis00:29:2025-393Male5 
6113Rowan Gaunt00:30:0119-241Male6Science for a muddier world
7229Samuel Smyth00:30:4711-151Male7The smyths
8230Patrick Smyth00:30:5040-492Male8The smyths
955Ralph Mcchesney00:32:0619-242Male9Chep
1060Lascain Couley00:32:3425-394Male10Chep
1153Piotr Kaminski00:32:5025-395Male11Chep
1230Amy Horrocks00:32:5725-391Female1Sexy Sausages
1357Martin Nemcko00:34:2240-493Male12 
1463Jason Mcgavin00:34:2340-494Male13Chep
15133Martin Heaton00:36:2225-396Male14Kinetics
16258Leon Heaton00:36:2225-397Male15Kinetics
1765Andy Harrison00:36:5340-495Male16Team Tomas
1864Dan Harrison00:36:5319-243Male17Team Tomas
1968Jane Samuel00:37:2125-392Female2Team Samuel
2010Daniel Davenport00:37:2225-398Male18 
2151Stephen Forester00:38:4825-399Male19 
22149Rebecca Leveridge00:40:2419-241Female3Norfolk N Chance
23150Ben Hughes00:40:2425-3910Male20Norfolk N Chance
24136Chris Bent00:40:2925-3911Male21Team Academy
2518Jonny Boyes00:40:4040-496Male22 
2617Michaela Dodd00:40:4125-393Female4 
2796Matt Lloyd00:42:1925-3912Male23 
2878Jane Casson00:43:5040-491Female5FIzzeek Health and Fitness
2979Sara Hilliard00:43:5040-492Female6FIzzeek Health and Fitness
3070Rachel Bagnall00:43:5425-394Female7 
31114Helen Spanner00:44:2725-395Female8H2Oh no
32115Helen Fowler00:44:2840-493Female9H2Oh no
3326Emily Brook00:44:4325-396Female10 
34502Olivia Hayman00:44:5511-151Female11 
35503Tess Hayman00:44:5611-152Female12 
3672Jen Brain00:46:1525-397Female13Team Brain
3771Chris Brain00:46:3825-3913Male24Team Brain
3825Melanie Weatherhead00:46:4525-398Female14 
3924Anna Tebay00:46:4825-399Female15 
40210George Campbell00:48:2411-152Male25 
4112Sophie Wilcock00:48:4625-3910Female16Total piss heads
4214Karl Dickin00:48:4640-497Male26Total piss heads
4313Jaimie Suckley00:48:4825-3911Female17Total piss heads
44208Georgia Dean00:48:5219-242Female18Castle Lifeguards
45206Stephanie Belk00:48:5219-243Female19Castle Lifeguards
46255Simon Hirst00:48:5240-498Male27Castle Lifeguards
47180Jason Porter00:48:5340-499Male28Castle Lifeguards
48148David Wood00:49:1425-3914Male29Mcworralls
49147Danielle Mccafferty00:49:1425-3912Female20Mcworralls
5020Edd Verity00:50:1025-3915Male30 
Page 1 of 3 (128 items)
[1]23
fb